sat.trackr.live / text

‹ back to catalog

CROCUBE

NORAD 62394 · 2024-247T

PAYLOAD ACTIVE UNKNOWN

§ Identity

Operator
Country
HRV
Launch date
2024-12-21
Launch site
AFWTR
Launch vehicle
Mass (kg)
RCS (m²)

Purposes: comms, tech_demo

External: N2YO · Heavens-Above · Gunter

§ Orbital elements

Epoch: 2026-09-19T19:16:55.373952Z

Period
92.58 min
Inclination
44.9694°
Eccentricity
0.0010408
Mean motion
15.55353066 rev/d
Perigee alt
394.1 km
Apogee alt
408.2 km
Semi-major
6,779.3 km
B*
5.9075e-4
RAAN
83.5666°
Arg perigee
241.5864°
Mean anomaly
118.3980°
Rev number
9,804

§ Raw data

CROCUBE1 62394U 24247T   26262.80341868  .00041029  00000+0  59075-3 0  99932 62394  44.9694  83.5666 0010408 241.5864 118.3980 15.55353066 98049

JSON: /api/v1/satellites/62394 · /tle

For live sub-satellite position, see the globe view (requires WebGL).

§ Visibility from observer

Set your observer location to see the next 7 days of passes ≥ 10°. The values pass through the URL so the page stays shareable.

No JS? Fill the form by hand. The geolocation button needs JavaScript.

§ Radio — SatNOGS DB

ModeDescriptionDownlinkUplink
CW CroCube UHF CW Beacon 436.775 MHz
GFSK Mode U - GFSK9k6 - AX.25 G3RUH 436.775 MHz
GFSK Mode U/U - GFSK9k6 - Digipeater - AX.25 436.775 MHz 436.775 MHz

3 transmitters · refreshed weekly from db.satnogs.org